Content
SEND FEEDBACK

Daily
Averages
Monthly
Summary
United States of America

PYGA BEACH, GUAM


Home > North America > United States > Guam
Elevation: 6 meters     Latitude: 13 17N     Longitude: 144 39E

WEATHER
 
SELECT A DAY
Number of Records: 350,245;   Date Range: 1/1/95 - 9/30/14
 
SHARE

PRINT THIS DATA

[ ← Previous Day ]
WEATHER ALMANAC - 20 MARCH, 2013
[ Next Day → ]
[ °F ]   °C
Weather ElementAverageHighLow
Temperature25.8 °C29 °C (10:59 am)23 °C (11:21 pm)
Dewpoint24 °C25 °C (8:37 am)21.8 °C (11:55 pm)
Humidity89.9 %95 % (6:55 pm)74 % (11:03 am)
Barometer1011.9 hPa1013.2 hPa (9:55 am)1009.8 hPa (3:55 pm)
Wind Speed23.3 km/h37 km/h (11:11 pm)
Wind Gust53.8 km/h (11:11 pm)
Weather ElementAverage
Visibility15.6 km
Wind DirectionENE (75.9 °)

Weather ElementTotal
Precipitation---
Cooling Degree Days7.7 (Base 18.3)
Growing Degree Days16 (Base 10)
Averaged from 121 records on 20 March, 2013
WEATHER CONDITIONS BREAKOUT
WIND DIRECTION BREAKOUT
WEATHER BY HOUR - 20 MARCH, 2013
[ °F ]   °C
Local TimeTemperatureDewpointHumidityBarometerVisibilityWind DirectionWind SpeedGust SpeedPrecipitationEventsConditions
12:07 AM26 °C24 °C89 %1012.5 hPa16.1 kmEast (90°)22.2 km/hMostly Cloudy
12:43 AM26 °C24 °C89 %1012.2 hPa16.1 kmEast (80°)24.1 km/hMostly Cloudy
12:55 AM25.6 °C24.2 °C92 %1011.9 hPa16.1 kmEast (90°)18.5 km/hMostly Cloudy
12:58 AM26 °C24 °C89 %1011.9 hPa16.1 kmEast (90°)18.5 km/hScattered Clouds
12:59 AM26 °C24 °C89 %1011.9 hPa16.1 kmEast (90°)18.5 km/hMostly Cloudy
1:17 AM26 °C24 °C89 %1011.9 hPa16.1 kmEast (80°)18.5 km/hMostly Cloudy
1:46 AM26 °C24 °C89 %1011.5 hPa16.1 kmENE (70°)18.5 km/hMostly Cloudy
1:55 AM25.4 °C24.4 °C94 %1011.2 hPa14.5 kmENE (70°)18.5 km/hMostly Cloudy
1:56 AM25 °C24 °C94 %1011.2 hPa14.5 kmENE (70°)22.2 km/hLight Drizzle
2:03 AM25 °C24 °C94 %1011.2 hPa14.5 kmENE (60°)18.5 km/hLight Drizzle
2:05 AM25 °C24 °C94 %1011.2 hPa16.1 kmENE (70°)16.7 km/hMostly Cloudy
2:06 AM25 °C24 °C94 %1011.2 hPa16.1 kmENE (70°)16.7 km/hMostly Cloudy
2:07 AM25 °C24 °C94 %1011.2 hPa16.1 kmEast (80°)16.7 km/hMostly Cloudy
2:08 AM25 °C24 °C94 %1011.2 hPa16.1 kmEast (80°)16.7 km/hMostly Cloudy
2:19 AM25 °C24 °C94 %1011.2 hPa16.1 kmENE (70°)22.2 km/hMostly Cloudy
2:21 AM25 °C24 °C94 %1011.2 hPa16.1 kmEast (80°)18.5 km/hMostly Cloudy
2:33 AM25 °C24 °C94 %1011.2 hPa16.1 kmEast (80°)22.2 km/hOvercast
2:55 AM25.3 °C24 °C92 %1010.8 hPa16.1 kmEast (90°)22.2 km/h0 mmMostly Cloudy
3:45 AM25 °C24 °C94 %1010.5 hPa16.1 kmEast (80°)24.1 km/hMostly Cloudy
3:47 AM25 °C24 °C94 %1010.8 hPa16.1 kmEast (80°)22.2 km/hMostly Cloudy
3:55 AM25.4 °C24.2 °C93 %1010.5 hPa16.1 kmEast (80°)25.9 km/hMostly Cloudy
4:11 AM25 °C24 °C94 %1010.5 hPa16.1 kmEast (90°)22.2 km/hMostly Cloudy
4:15 AM25 °C24 °C94 %1010.5 hPa16.1 kmEast (90°)25.9 km/hMostly Cloudy
4:25 AM25 °C24 °C94 %1010.5 hPa16.1 kmEast (90°)20.4 km/hMostly Cloudy
4:55 AM25.4 °C23.9 °C91 %1010.5 hPa16.1 kmEast (90°)18.5 km/hMostly Cloudy
5:05 AM25 °C24 °C94 %1010.5 hPa16.1 kmEast (80°)22.2 km/hMostly Cloudy
5:06 AM25 °C24 °C94 %1010.5 hPa16.1 kmEast (80°)22.2 km/hMostly Cloudy
5:08 AM25 °C24 °C94 %1010.8 hPa16.1 kmEast (90°)18.5 km/hScattered Clouds
5:10 AM25 °C24 °C94 %1010.5 hPa16.1 kmEast (90°)20.4 km/hMostly Cloudy
5:11 AM25 °C24 °C94 %1010.5 hPa16.1 kmEast (90°)18.5 km/hMostly Cloudy
5:44 AM25 °C24 °C94 %1010.8 hPa14.5 kmEast (80°)27.8 km/hRainLight Rain
5:49 AM25 °C24 °C94 %1010.8 hPa14.5 kmEast (90°)22.2 km/hLight Drizzle
5:54 AM25 °C24 °C94 %1010.8 hPa16.1 kmEast (80°)18.5 km/hMostly Cloudy
5:55 AM25.4 °C24.1 °C92 %1010.8 hPa16.1 kmEast (80°)22.2 km/hMostly Cloudy
6:01 AM25 °C24 °C94 %1011.2 hPa16.1 kmEast (100°)18.5 km/hMostly Cloudy
6:04 AM25 °C24 °C94 %1011.2 hPa16.1 kmEast (100°)16.7 km/hMostly Cloudy
6:12 AM25 °C24 °C94 %1011.2 hPa16.1 kmEast (80°)20.4 km/hMostly Cloudy
6:13 AM25 °C24 °C94 %1011.2 hPa16.1 kmEast (90°)22.2 km/hMostly Cloudy
6:15 AM25 °C24 °C94 %1011.2 hPa16.1 kmEast (80°)24.1 km/hMostly Cloudy
6:24 AM26 °C24 °C89 %1011.5 hPa16.1 kmEast (80°)22.2 km/hMostly Cloudy
6:31 AM26 °C24 °C89 %1011.5 hPa16.1 kmEast (80°)27.8 km/hMostly Cloudy
6:55 AM25.6 °C24.3 °C92 %1011.9 hPa16.1 kmEast (90°)24.1 km/hMostly Cloudy
7:02 AM26 °C24 °C89 %1011.9 hPa16.1 kmEast (90°)20.4 km/hMostly Cloudy
7:16 AM26 °C24 °C89 %1012.2 hPa16.1 kmEast (90°)27.8 km/hMostly Cloudy
7:29 AM26 °C24 °C89 %1012.5 hPa16.1 kmEast (90°)24.1 km/h33.3 km/hScattered Clouds
7:35 AM26 °C24 °C89 %1012.5 hPa16.1 kmEast (90°)24.1 km/h33.3 km/hMostly Cloudy
7:55 AM26.2 °C24.1 °C88 %1012.5 hPa16.1 kmEast (90°)24.1 km/h35.2 km/hMostly Cloudy
8:37 AM27 °C25 °C89 %1012.9 hPa16.1 kmEast (90°)24.1 km/h33.3 km/hMostly Cloudy
8:41 AM27 °C24 °C84 %1012.9 hPa16.1 kmEast (80°)25.9 km/hMostly Cloudy
8:44 AM27 °C24 °C84 %1012.9 hPa16.1 kmEast (90°)27.8 km/hScattered Clouds
8:51 AM27 °C25 °C89 %1012.9 hPa16.1 kmEast (90°)22.2 km/hMostly Cloudy
8:55 AM27.5 °C24.7 °C85 %1012.9 hPa16.1 kmEast (80°)27.8 km/hMostly Cloudy
9:05 AM28 °C25 °C84 %1012.9 hPa16.1 kmEast (80°)24.1 km/hScattered Clouds
9:09 AM28 °C25 °C84 %1012.9 hPa16.1 kmEast (80°)24.1 km/hMostly Cloudy
9:55 AM27.9 °C24.4 °C81 %1013.2 hPa16.1 kmEast (90°)25.9 km/h37 km/hMostly Cloudy
10:16 AM28 °C25 °C84 %1013.2 hPa16.1 kmEast (90°)24.1 km/hMostly Cloudy
10:18 AM28 °C25 °C84 %1013.2 hPa16.1 kmEast (90°)22.2 km/hScattered Clouds
10:40 AM28 °C25 °C84 %1013.2 hPa16.1 kmEast (90°)24.1 km/hMostly Cloudy
10:50 AM28 °C25 °C84 %1013.2 hPa16.1 kmEast (90°)25.9 km/hScattered Clouds
10:52 AM28 °C25 °C84 %1013.2 hPa16.1 kmEast (90°)27.8 km/h37 km/hMostly Cloudy
10:55 AM28.4 °C24.5 °C79 %1013.2 hPa16.1 kmEast (90°)25.9 km/h37 km/hMostly Cloudy
10:57 AM28 °C25 °C84 %1013.2 hPa16.1 kmEast (80°)25.9 km/h37 km/hScattered Clouds
10:58 AM28 °C25 °C84 %1013.2 hPa16.1 kmEast (90°)25.9 km/h37 km/hMostly Cloudy
10:59 AM29 °C25 °C79 %1013.2 hPa16.1 kmEast (90°)24.1 km/h37 km/hMostly Cloudy
11:03 AM29 °C24 °C74 %1012.9 hPa16.1 kmEast (90°)27.8 km/hScattered Clouds
11:40 AM29 °C25 °C79 %1012.5 hPa16.1 kmENE (70°)24.1 km/hMostly Cloudy
11:55 AM29 °C24.8 °C78 %1012.5 hPa16.1 kmEast (80°)18.5 km/hMostly Cloudy
12:55 PM28.3 °C24.7 °C81 %1011.5 hPa16.1 kmEast (80°)22.2 km/hOvercast
1:55 PM28.3 °C24.7 °C81 %1010.8 hPa16.1 kmEast (90°)20.4 km/hMostly Cloudy
1:56 PM28 °C25 °C84 %1010.8 hPa16.1 kmEast (90°)20.4 km/hScattered Clouds
1:59 PM29 °C25 °C79 %1010.8 hPa16.1 kmEast (90°)24.1 km/hMostly Cloudy
2:16 PM29 °C25 °C79 %1010.8 hPa16.1 kmEast (90°)20.4 km/hScattered Clouds
2:17 PM29 °C25 °C79 %1010.8 hPa16.1 kmEast (90°)20.4 km/hMostly Cloudy
2:55 PM28.2 °C24.5 °C80 %1010.5 hPa16.1 kmENE (70°)22.2 km/hMostly Cloudy
3:55 PM28.3 °C24.6 °C80 %1009.8 hPa16.1 kmENE (70°)20.4 km/hMostly Cloudy
4:55 PM27.3 °C24.1 °C83 %1010.2 hPa16.1 kmENE (60°)20.4 km/hMostly Cloudy
5:06 PM27 °C24 °C84 %1010.2 hPa16.1 kmENE (60°)18.5 km/hMostly Cloudy
5:18 PM27 °C24 °C84 %1010.2 hPa16.1 kmEast (80°)20.4 km/hScattered Clouds
5:41 PM27 °C24 °C84 %1010.5 hPa16.1 kmENE (60°)25.9 km/h31.5 km/hMostly Cloudy
5:46 PM27 °C24 °C84 %1010.5 hPa11.3 kmENE (60°)24.1 km/h31.5 km/hRainLight Rain
5:55 PM25.6 °C24 °C91 %1010.5 hPa6.4 kmENE (70°)16.7 km/h0 mmRainHeavy Rain
6:10 PM25 °C24 °C94 %1010.8 hPa4 kmENE (60°)13 km/h27.8 km/hRainLight Rain
6:12 PM25 °C24 °C94 %1010.8 hPa4.8 kmNE (50°)14.8 km/h27.8 km/hRainHeavy Rain
6:17 PM25 °C24 °C94 %1010.8 hPa6.4 kmNE (40°)18.5 km/hRainLight Rain
6:22 PM25 °C24 °C94 %1010.8 hPa16.1 kmNE (40°)16.7 km/hMostly Cloudy
6:23 PM25 °C24 °C94 %1010.8 hPa16.1 kmNE (40°)16.7 km/hMostly Cloudy
6:44 PM25 °C24 °C94 %1011.2 hPa16.1 kmENE (60°)18.5 km/hScattered Clouds
6:55 PM24.8 °C23.9 °C95 %1011.2 hPa16.1 kmENE (70°)18.5 km/h0 mmPartly Cloudy
7:04 PM25 °C24 °C94 %1011.2 hPa16.1 kmENE (70°)20.4 km/hMostly Cloudy
7:09 PM25 °C24 °C94 %1011.5 hPa16.1 kmENE (70°)20.4 km/hMostly Cloudy
7:41 PM26 °C24 °C89 %1011.5 hPa16.1 kmENE (60°)22.2 km/hOvercast
7:42 PM26 °C24 °C89 %1011.5 hPa16.1 kmENE (60°)22.2 km/hOvercast
7:44 PM26 °C24 °C89 %1011.5 hPa16.1 kmENE (60°)20.4 km/hOvercast
7:45 PM26 °C24 °C89 %1011.5 hPa16.1 kmENE (60°)20.4 km/hOvercast
7:55 PM25.5 °C24.2 °C92 %1011.9 hPa16.1 kmNE (50°)22.2 km/hOvercast
8:04 PM25 °C24 °C94 %1011.9 hPa16.1 kmNE (50°)31.5 km/hOvercast
8:10 PM25 °C24 °C94 %1011.9 hPa16.1 kmNE (50°)31.5 km/hOvercast
8:14 PM25 °C24 °C94 %1011.9 hPa16.1 kmENE (60°)25.9 km/hRainLight Rain
8:22 PM25 °C24 °C94 %1012.2 hPa14.5 kmENE (60°)24.1 km/hRainLight Rain
8:27 PM25 °C24 °C94 %1012.2 hPa16.1 kmENE (60°)20.4 km/hMostly Cloudy
8:55 PM24.9 °C24.1 °C95 %1012.5 hPa16.1 kmENE (60°)24.1 km/hOvercast
9:00 PM25 °C24 °C94 %1012.5 hPa16.1 kmENE (60°)20.4 km/hOvercast
9:11 PM24 °C23 °C94 %1012.9 hPa16.1 kmENE (60°)27.8 km/h40.7 km/hOvercast
9:12 PM24 °C23 °C94 %1012.9 hPa16.1 kmENE (60°)27.8 km/h40.7 km/hOvercast
9:22 PM24 °C23 °C94 %1012.9 hPa16.1 kmENE (60°)25.9 km/hOvercast
9:42 PM24 °C23 °C94 %1012.9 hPa16.1 kmENE (60°)25.9 km/h35.2 km/hOvercast
9:45 PM24 °C23 °C94 %1012.9 hPa16.1 kmENE (60°)31.5 km/h37 km/hOvercast
9:55 PM24.3 °C23.5 °C95 %1012.9 hPa16.1 kmNE (50°)31.5 km/hOvercast
10:11 PM24 °C23 °C94 %1012.9 hPa16.1 kmENE (60°)29.6 km/hOvercast
10:20 PM24 °C23 °C94 %1013.2 hPa16.1 kmENE (60°)31.5 km/hOvercast
10:28 PM24 °C23 °C94 %1012.9 hPa16.1 kmNE (50°)27.8 km/hMostly Cloudy
10:32 PM24 °C23 °C94 %1012.9 hPa16.1 kmENE (60°)25.9 km/hRainLight Rain
10:54 PM24 °C23 °C94 %1012.9 hPa16.1 kmENE (60°)29.6 km/h37 km/hClear
10:55 PM24.1 °C22.9 °C93 %1012.9 hPa16.1 kmENE (70°)29.6 km/h37 km/h0 mmClear
11:11 PM24 °C22 °C89 %1012.9 hPa16.1 kmEast (80°)37 km/h53.8 km/hMostly Cloudy
11:12 PM24 °C22 °C89 %1012.9 hPa16.1 kmEast (80°)37 km/h53.8 km/hScattered Clouds
11:15 PM24 °C22 °C89 %1012.9 hPa14.5 kmEast (90°)35.2 km/h53.8 km/hMostly Cloudy
11:21 PM23 °C22 °C94 %1012.9 hPa14.5 kmEast (90°)37 km/h51.8 km/hMostly Cloudy
11:37 PM23 °C22 °C94 %1012.5 hPa16.1 kmEast (80°)37 km/h46.3 km/hScattered Clouds
11:55 PM23.1 °C21.8 °C92 %1012.2 hPa16.1 kmEast (80°)27.8 km/h42.6 km/hPartly Cloudy
11:58 PM23 °C22 °C94 %1012.2 hPa16.1 kmEast (80°)29.6 km/h40.7 km/hLight Drizzle
Hourly data recorded from PGUA, located 0 kilometers away from Pyga Beach, Guam







STORIES FROM OUR PARTNERS